User: anonymous   Login
Location: Unspecified
(0.0000°N, 0.0000°E)
Time: 07:58:13
(UTC+00:00)
Language:

ITUPSAT 1 - Orbit

View from above orbital plane
View from above orbital plane
View from above satellite
View from above satellite

Ground track
Ground track

The orbit data is extracted from the following two-line orbital elements,

1 35935U 09051E   24141.24669601  .00002696  00000-0  60088-3 0  9994
2 35935  98.4782  24.7426 0009179  67.6151 292.6018 14.57697102778194
Epoch (UTC): 20 May 2024 05:55:14
Eccentricity: 0.0009179
inclination: 98.4782°
perigee height: 694 km
apogee height: 707 km
right ascension of ascending node: 24.7426°
argument of perigee: 67.6151°
revolutions per day: 14.57697102
mean anomaly at epoch: 292.6018°
orbit number at epoch: 77819

The dashed part of the orbit path shows where the satellite is in the earth's shadow,  

DLR